RYR1KP LKPR-LZKZ

Flight info

Callsign RYR1KP
Flight time 0h 51m
Altitude 29000
Route VOZ4B/30 VOZ DCT LIKSA DCT UPLAV DCT MAKAL DCT TAKOS
Aircraft B38M/M-SDE1FGHILORVWXY/HB1

Departure

Time 2026-05-04 17:38
Airport Václav Havel Airport Prague (LKPR)

Arrival

Time 2026-05-04 18:29
Airport Košice International Airport (LZKZ)
Time Latitude Longitude Altitude Speed Heading
2026-05-04 17:15 50.10411 14.26632 1175 ft 0 kts 34°
2026-05-04 17:29 50.10407 14.26628 1181 ft 4 kts 33°
2026-05-04 17:29 50.10381 14.26577 1179 ft 1 kts 123°
2026-05-04 17:30 50.10381 14.26576 1179 ft 0 kts 123°
2026-05-04 17:33 50.10380 14.26579 1178 ft 1 kts 123°
2026-05-04 17:33 50.10358 14.26612 1183 ft 8 kts 155°
2026-05-04 17:34 50.10177 14.26646 1199 ft 19 kts 125°
2026-05-04 17:34 50.10080 14.26849 1203 ft 28 kts 127°
2026-05-04 17:35 50.09731 14.27503 1209 ft 26 kts 135°
2026-05-04 17:35 50.09476 14.27891 1217 ft 24 kts 135°
2026-05-04 17:35 50.09362 14.28069 1223 ft 22 kts 134°
2026-05-04 17:36 50.09258 14.28233 1228 ft 20 kts 137°
2026-05-04 17:36 50.09145 14.28268 1238 ft 15 kts 211°
2026-05-04 17:36 50.09083 14.28148 1238 ft 15 kts 255°
2026-05-04 17:36 50.09131 14.27998 1236 ft 20 kts 307°
2026-05-04 17:37 50.09390 14.27463 1221 ft 104 kts 307°
2026-05-04 17:37 50.09967 14.26259 1214 ft 173 kts 308°
2026-05-04 17:37 50.10644 14.24853 1308 ft 151 kts 309°
2026-05-04 17:37 50.11354 14.23442 1714 ft 179 kts 310°
2026-05-04 17:38 50.12112 14.21878 2516 ft 179 kts 307°
2026-05-04 17:38 50.12870 14.20281 3124 ft 191 kts 307°
2026-05-04 17:38 50.13707 14.18530 3566 ft 212 kts 306°
2026-05-04 17:38 50.14633 14.16597 3991 ft 234 kts 306°
2026-05-04 17:39 50.16696 14.12301 5546 ft 251 kts 306°
2026-05-04 17:39 50.17685 14.09994 6268 ft 264 kts 293°
2026-05-04 17:39 50.17983 14.07142 6887 ft 273 kts 259°
2026-05-04 17:40 50.17274 14.04459 7894 ft 270 kts 233°
2026-05-04 17:40 50.15835 14.02600 8822 ft 273 kts 205°
2026-05-04 17:40 50.13963 14.02101 9728 ft 281 kts 176°
2026-05-04 17:40 50.12106 14.03167 10414 ft 298 kts 148°
2026-05-04 17:41 50.10523 14.05463 10818 ft 319 kts 139°
2026-05-04 17:41 50.08863 14.07874 11185 ft 337 kts 141°
2026-05-04 17:41 50.07092 14.10383 11698 ft 350 kts 141°
2026-05-04 17:41 50.05290 14.12950 12503 ft 352 kts 140°
2026-05-04 17:42 50.03484 14.15552 13301 ft 356 kts 140°
2026-05-04 17:42 50.01656 14.18187 14041 ft 360 kts 140°
2026-05-04 17:42 49.99821 14.20867 14733 ft 365 kts 137°
2026-05-04 17:42 49.98373 14.24141 15403 ft 375 kts 116°
2026-05-04 17:43 49.97607 14.28067 15667 ft 381 kts 107°
2026-05-04 17:43 49.96887 14.32017 15838 ft 380 kts 109°
2026-05-04 17:43 49.96127 14.35956 15940 ft 381 kts 109°
2026-05-04 17:43 49.95350 14.39889 15949 ft 381 kts 109°
2026-05-04 17:44 49.94564 14.43810 15946 ft 380 kts 109°
2026-05-04 17:44 49.93768 14.47742 16182 ft 382 kts 110°
2026-05-04 17:44 49.92970 14.51674 16925 ft 384 kts 109°
2026-05-04 17:44 49.92160 14.55648 17570 ft 388 kts 109°
2026-05-04 17:45 49.91341 14.59659 18230 ft 392 kts 109°
2026-05-04 17:45 49.90512 14.63708 18785 ft 395 kts 110°
2026-05-04 17:45 49.89674 14.67788 19335 ft 399 kts 110°
2026-05-04 17:45 49.88836 14.71867 19888 ft 402 kts 110°
2026-05-04 17:46 49.87974 14.76054 20435 ft 406 kts 110°
2026-05-04 17:46 49.87110 14.80238 20984 ft 409 kts 110°
2026-05-04 17:46 49.86239 14.84450 21519 ft 413 kts 110°
2026-05-04 17:46 49.85358 14.88701 22054 ft 416 kts 110°
2026-05-04 17:47 49.84468 14.92984 22584 ft 419 kts 110°
2026-05-04 17:47 49.83572 14.97288 23097 ft 422 kts 110°
2026-05-04 17:47 49.82666 15.01632 23580 ft 425 kts 110°
2026-05-04 17:47 49.81763 15.05953 23996 ft 428 kts 110°
2026-05-04 17:48 49.80841 15.10354 24405 ft 431 kts 110°
2026-05-04 17:48 49.79911 15.14784 24814 ft 434 kts 110°
2026-05-04 17:48 49.78972 15.19246 25223 ft 437 kts 110°
2026-05-04 17:48 49.78026 15.23731 25604 ft 440 kts 110°
2026-05-04 17:49 49.77071 15.28249 25997 ft 443 kts 109°
2026-05-04 17:49 49.76109 15.32790 26386 ft 446 kts 110°
2026-05-04 17:49 49.75139 15.37358 26765 ft 449 kts 109°
2026-05-04 17:49 49.74160 15.41960 27142 ft 451 kts 109°
2026-05-04 17:50 49.73174 15.46583 27510 ft 454 kts 109°
2026-05-04 17:50 49.72183 15.51224 27892 ft 456 kts 109°
2026-05-04 17:50 49.71182 15.55892 28243 ft 459 kts 109°
2026-05-04 17:50 49.70174 15.60586 28605 ft 462 kts 109°
2026-05-04 17:51 49.69158 15.65305 28906 ft 465 kts 109°
2026-05-04 17:51 49.68128 15.70078 28960 ft 472 kts 109°
2026-05-04 17:51 49.66026 15.79775 28946 ft 478 kts 109°
2026-05-04 17:52 49.63913 15.89490 28948 ft 477 kts 109°
2026-05-04 17:52 49.61795 15.99186 28955 ft 477 kts 109°
2026-05-04 17:53 49.59669 16.08869 28953 ft 477 kts 109°
2026-05-04 17:53 49.57537 16.18538 28957 ft 476 kts 109°
2026-05-04 17:54 49.55397 16.28192 28961 ft 476 kts 109°
2026-05-04 17:54 49.53253 16.37829 28958 ft 476 kts 109°
2026-05-04 17:55 49.51101 16.47452 28960 ft 475 kts 109°
2026-05-04 17:55 49.48942 16.57063 28962 ft 475 kts 110°
2026-05-04 17:56 49.46777 16.66652 28968 ft 475 kts 110°
2026-05-04 17:56 49.44606 16.76229 28964 ft 474 kts 110°
2026-05-04 17:57 49.42427 16.85799 28964 ft 474 kts 110°
2026-05-04 17:57 49.40243 16.95348 28963 ft 474 kts 110°
2026-05-04 17:58 49.38049 17.04893 28971 ft 474 kts 110°
2026-05-04 17:58 49.35849 17.14427 28971 ft 474 kts 110°
2026-05-04 17:59 49.33640 17.23953 28968 ft 474 kts 110°
2026-05-04 17:59 49.31940 17.33655 28971 ft 472 kts 97°
2026-05-04 18:00 49.31470 17.38635 28967 ft 473 kts 98°
2026-05-04 18:00 49.30439 17.48598 28972 ft 473 kts 99°
2026-05-04 18:01 49.29396 17.58477 28974 ft 473 kts 99°
2026-05-04 18:01 49.28338 17.68411 28970 ft 473 kts 99°
2026-05-04 18:02 49.26735 17.83306 28979 ft 472 kts 99°
2026-05-04 18:02 49.25655 17.93228 28980 ft 473 kts 99°
2026-05-04 18:03 49.24567 18.03155 28986 ft 473 kts 99°
2026-05-04 18:03 49.23469 18.13079 28993 ft 473 kts 99°
2026-05-04 18:04 49.22364 18.22992 29000 ft 473 kts 99°
2026-05-04 18:05 49.20690 18.37851 28997 ft 473 kts 99°
2026-05-04 18:05 49.19564 18.47744 28993 ft 473 kts 99°
2026-05-04 18:05 49.18998 18.52691 28800 ft 472 kts 99°
2026-05-04 18:06 49.17868 18.62504 28102 ft 465 kts 99°
2026-05-04 18:06 49.17307 18.67352 27667 ft 462 kts 99°
2026-05-04 18:06 49.16747 18.72172 27233 ft 459 kts 100°
2026-05-04 18:07 49.16188 18.76956 26759 ft 455 kts 100°
2026-05-04 18:07 49.15633 18.81703 26297 ft 452 kts 100°
2026-05-04 18:07 49.15078 18.86420 25838 ft 449 kts 100°
2026-05-04 18:07 49.14526 18.91100 25392 ft 447 kts 100°
2026-05-04 18:08 49.13974 18.95759 24945 ft 444 kts 100°
2026-05-04 18:08 49.13424 19.00386 24505 ft 442 kts 100°
2026-05-04 18:08 49.12876 19.04986 24081 ft 439 kts 100°
2026-05-04 18:08 49.12329 19.09552 23662 ft 436 kts 101°
2026-05-04 18:09 49.11242 19.18588 22668 ft 430 kts 101°
2026-05-04 18:09 49.10344 19.26003 21854 ft 424 kts 101°
2026-05-04 18:10 49.09634 19.31839 21216 ft 420 kts 101°
2026-05-04 18:10 49.09275 19.34785 20901 ft 418 kts 101°
2026-05-04 18:10 49.08742 19.39133 20433 ft 415 kts 102°
2026-05-04 18:10 49.08213 19.43440 19974 ft 412 kts 102°
2026-05-04 18:11 49.07514 19.49114 19378 ft 409 kts 102°
2026-05-04 18:11 49.07159 19.51984 19078 ft 407 kts 102°
2026-05-04 18:11 49.06635 19.56209 18650 ft 404 kts 102°
2026-05-04 18:11 49.06113 19.60409 18284 ft 402 kts 102°
2026-05-04 18:12 49.05591 19.64588 17837 ft 400 kts 102°
2026-05-04 18:12 49.05072 19.68735 17375 ft 397 kts 102°
2026-05-04 18:12 49.04555 19.72848 16892 ft 394 kts 102°
2026-05-04 18:12 49.04041 19.76927 16418 ft 391 kts 102°
2026-05-04 18:13 49.03530 19.80979 15952 ft 388 kts 102°
2026-05-04 18:13 49.03021 19.84997 15489 ft 385 kts 102°
2026-05-04 18:13 49.02009 19.92950 14587 ft 380 kts 102°
2026-05-04 18:14 49.01504 19.96896 14157 ft 379 kts 102°
2026-05-04 18:14 49.01000 20.00825 13704 ft 377 kts 102°
2026-05-04 18:14 49.00500 20.04727 13253 ft 374 kts 102°
2026-05-04 18:15 48.99509 20.12394 12358 ft 369 kts 102°
2026-05-04 18:15 48.98518 20.20032 11486 ft 366 kts 102°
2026-05-04 18:15 48.98024 20.23820 11066 ft 364 kts 102°
2026-05-04 18:16 48.97532 20.27591 10640 ft 363 kts 103°
2026-05-04 18:16 48.97040 20.31346 10232 ft 361 kts 102°
2026-05-04 18:16 48.96551 20.35064 10037 ft 357 kts 103°
2026-05-04 18:17 48.95570 20.42501 9664 ft 359 kts 103°
2026-05-04 18:17 48.95079 20.46213 9288 ft 356 kts 103°
2026-05-04 18:17 48.94105 20.53538 8550 ft 351 kts 103°
2026-05-04 18:18 48.93620 20.57176 8193 ft 350 kts 103°
2026-05-04 18:18 48.93136 20.60790 7834 ft 348 kts 103°
2026-05-04 18:18 48.92654 20.64387 7478 ft 346 kts 103°
2026-05-04 18:18 48.92177 20.67936 7131 ft 337 kts 103°
2026-05-04 18:19 48.91273 20.74640 6440 ft 311 kts 103°
2026-05-04 18:19 48.90845 20.77799 6091 ft 300 kts 103°
2026-05-04 18:19 48.90429 20.80856 5736 ft 290 kts 104°
2026-05-04 18:20 48.90031 20.83786 5586 ft 273 kts 103°
2026-05-04 18:20 48.89663 20.86499 5604 ft 258 kts 104°
2026-05-04 18:20 48.89289 20.89237 5507 ft 269 kts 104°
2026-05-04 18:20 48.88905 20.92033 5457 ft 272 kts 103°
2026-05-04 18:21 48.88517 20.94869 5519 ft 275 kts 103°
2026-05-04 18:21 48.88128 20.97701 5468 ft 273 kts 104°
2026-05-04 18:21 48.87738 21.00533 5508 ft 274 kts 104°
2026-05-04 18:21 48.87348 21.03372 5493 ft 273 kts 103°
2026-05-04 18:22 48.86961 21.06189 5498 ft 273 kts 104°
2026-05-04 18:22 48.86570 21.09004 5492 ft 271 kts 104°
2026-05-04 18:22 48.86181 21.11803 5301 ft 271 kts 104°
2026-05-04 18:22 48.85794 21.14584 4918 ft 267 kts 104°
2026-05-04 18:23 48.85416 21.17300 4514 ft 259 kts 105°
2026-05-04 18:23 48.85047 21.19950 4128 ft 254 kts 105°
2026-05-04 18:23 48.84688 21.22524 3740 ft 242 kts 105°
2026-05-04 18:23 48.84351 21.24946 3383 ft 230 kts 105°
2026-05-04 18:24 48.83874 21.27157 3054 ft 207 kts 129°
2026-05-04 18:24 48.82921 21.28448 2962 ft 164 kts 157°
2026-05-04 18:24 48.81942 21.28984 2950 ft 144 kts 174°
2026-05-04 18:24 48.80974 21.29068 3058 ft 139 kts 187°
2026-05-04 18:25 48.80035 21.28879 3154 ft 134 kts 194°
2026-05-04 18:25 48.79128 21.28601 2987 ft 132 kts 195°
2026-05-04 18:25 48.78239 21.28299 2825 ft 130 kts 195°
2026-05-04 18:25 48.77351 21.27991 2708 ft 131 kts 195°
2026-05-04 18:26 48.76469 21.27683 2555 ft 129 kts 195°
2026-05-04 18:26 48.75600 21.27377 2389 ft 128 kts 195°
2026-05-04 18:26 48.74738 21.27076 2205 ft 127 kts 195°
2026-05-04 18:26 48.73873 21.26769 2047 ft 129 kts 195°
2026-05-04 18:27 48.72997 21.26462 1862 ft 129 kts 194°
2026-05-04 18:27 48.72113 21.26152 1691 ft 131 kts 195°
2026-05-04 18:27 48.71221 21.25835 1491 ft 132 kts 193°
2026-05-04 18:27 48.70322 21.25524 1318 ft 133 kts 193°
2026-05-04 18:28 48.69419 21.25215 1174 ft 135 kts 195°
2026-05-04 18:28 48.68505 21.24885 1015 ft 131 kts 195°
2026-05-04 18:28 48.67666 21.24590 797 ft 121 kts 193°
2026-05-04 18:28 48.66954 21.24341 765 ft 62 kts 194°
2026-05-04 18:29 48.66775 21.24350 764 ft 10 kts 111°
2026-05-04 18:29 48.66755 21.24460 763 ft 4 kts 99°
2026-05-04 18:29 48.66749 21.24520 763 ft 7 kts 100°
2026-05-04 18:29 48.66743 21.24611 762 ft 9 kts 68°
2026-05-04 18:30 48.66824 21.24651 761 ft 15 kts 11°
2026-05-04 18:30 48.66969 21.24699 764 ft 20 kts 11°
2026-05-04 18:30 48.67093 21.24741 762 ft 17 kts 12°
2026-05-04 18:31 48.67188 21.24707 759 ft 11 kts 287°
2026-05-04 18:31 48.67209 21.24534 762 ft 22 kts 282°
2026-05-04 18:31 48.67253 21.24251 760 ft 32 kts 284°
2026-05-04 18:31 48.67299 21.23956 765 ft 22 kts 282°
2026-05-04 18:32 48.67334 21.23896 767 ft 8 kts 322°
2026-05-04 18:32 48.67333 21.23843 768 ft 5 kts 209°
2026-05-04 18:32 48.67296 21.23830 768 ft 6 kts 153°
2026-05-04 18:32 48.67304 21.23878 767 ft 6 kts 21°
2026-05-04 18:33 48.67309 21.23877 767 ft 0 kts 354°